GFSNGP_850_thetae_093.txt.gz
Theta_e
305 305 305 307 308 309 313 316 317 316 316 314 310 308 305 303 301 299 297 296 294 296 298 303 305 308 313 318 323 324 324 325 324 323 323 322 321 322 322 321 320 322 320 320
303 304 305 306 308 311 312 314 315 314 315 308 305 303 301 299 298 296 295 293 293 294 296 298 301 303 307 310 318 322 323 323 324 323 323 322 322 323 322 322 320 320 322 322
301 305 305 309 313 311 312 313 313 316 311 307 302 300 298 297 295 294 293 292 292 292 293 295 298 299 304 304 308 316 317 319 321 322 321 321 321 322 322 321 320 320 319 319
303 304 310 311 311 312 310 308 308 308 306 303 299 296 294 293 293 292 292 292 292 292 293 295 296 298 300 303 304 308 309 312 313 317 317 319 320 320 320 319 318 319 319 318
306 307 312 311 310 310 311 308 305 304 302 302 298 296 294 292 291 291 291 292 292 292 294 294 295 295 298 301 301 304 303 303 303 305 308 309 313 316 314 314 314 314 314 314
307 309 314 308 305 306 309 309 303 300 298 299 301 304 293 292 291 291 291 291 292 293 293 295 295 295 298 298 299 299 300 299 300 301 300 298 299 302 305 306 306 304 306 306
305 307 309 303 304 306 308 307 300 297 294 293 294 293 291 291 291 290 290 290 291 292 291 292 294 295 296 296 295 295 298 298 299 298 299 299 296 295 297 299 299 299 299 298
309 310 308 300 303 305 303 300 298 295 293 292 291 291 291 290 290 290 289 289 289 289 289 290 291 293 293 294 293 295 296 297 296 296 296 297 297 294 294 297 297 297 296 296
308 306 300 298 298 299 299 298 296 294 292 291 290 290 290 289 289 288 288 288 288 288 288 288 289 291 292 291 293 294 295 295 294 294 294 294 295 295 292 292 293 294 294 294
304 300 298 298 296 295 295 295 294 293 291 290 290 290 289 289 288 288 287 287 287 288 288 288 288 288 288 289 290 292 293 293 293 293 292 292 293 293 293 292 292 291 291 291
303 300 297 296 295 295 293 292 291 291 290 290 290 289 288 287 287 287 286 286 286 287 287 287 288 288 289 289 290 290 291 290 290 291 292 292 292 291 292 291 291 291 291 290
298 296 297 295 293 293 292 291 290 289 289 289 289 288 287 287 286 286 286 286 286 286 287 287 287 287 287 288 289 288 288 287 286 287 286 286 287 288 288 287 288 289 289 289
295 294 294 293 292 291 290 289 288 288 288 288 287 287 286 286 285 285 284 285 285 286 286 286 286 286 285 286 287 287 287 286 285 285 285 284 283 282 282 281 282 283 283 284
294 293 293 293 291 290 289 289 288 288 287 287 286 286 286 285 285 284 284 284 285 285 285 285 284 283 283 282 283 283 283 284 284 283 283 283 283 282 281 280 279 279 278 278
293 293 292 292 292 291 290 289 288 287 286 286 285 285 285 284 284 283 283 283 282 281 281 282 282 282 282 281 281 282 282 281 281 281 281 280 280 280 280 280 280 279 278 278
293 292 292 291 291 290 289 288 287 286 285 285 284 284 284 284 284 284 283 281 281 281 280 280 280 281 282 282 281 280 280 281 281 280 280 280 280 279 279 279 278 277 277 278
293 293 292 290 289 288 287 286 285 284 284 283 282 282 283 284 282 280 279 279 279 279 279 279 279 280 281 281 280 280 280 280 280 279 279 279 279 278 278 278 277 275 275 276
292 292 290 289 288 287 286 285 285 284 284 283 283 283 283 281 280 278 278 279 278 278 278 278 278 277 278 278 279 279 278 278 278 278 278 278 278 277 277 276 276 276 275 274
289 288 288 287 286 286 285 284 284 284 284 283 283 283 281 279 278 277 278 278 277 277 277 277 277 276 276 277 278 278 278 278 277 277 277 277 276 276 276 276 275 274 274 273
286 286 286 286 285 284 284 284 284 283 283 281 279 278 278 277 277 278 279 279 278 276 276 276 276 276 276 275 276 276 276 276 276 276 276 276 275 275 274 274 274 273 273 272
284 284 284 284 284 284 283 283 282 281 279 278 278 278 277 277 277 278 278 278 277 275 276 276 275 275 274 275 275 275 275 275 275 274 274 274 274 273 273 273 273 272 272 272
283 283 283 283 283 283 282 280 279 279 278 278 278 279 278 278 277 278 278 277 276 275 275 274 274 274 273 273 274 274 273 273 273 273 273 273 273 273 272 272 272 271 271 271
282 283 283 283 282 281 280 278 278 278 278 278 277 277 278 278 277 277 276 276 275 274 273 273 272 272 272 272 272 272 271 271 271 271 271 271 271 271 271 271 271 270 270 270
282 282 281 280 280 280 279 279 279 279 278 278 278 278 277 277 277 276 276 275 274 273 273 273 272 272 272 271 272 271 271 270 270 270 270 270 270 270 269 269 269 269 268 268
281 280 282 282 281 281 281 280 280 280 280 279 279 279 278 278 277 276 275 274 274 273 273 272 272 272 271 271 271 270 270 270 270 270 270 269 269 269 269 269 268 268 268 268
282 282 282 282 282 281 281 280 281 281 280 280 279 279 278 277 277 276 275 274 274 273 273 273 272 272 272 271 271 271 270 270 270 270 269 269 269 269 268 268 268 268 267 267
283 282 282 282 281 281 280 280 280 280 280 279 278 278 277 277 276 275 275 274 274 274 273 273 273 272 272 272 271 271 271 270 269 269 269 269 268 268 268 267 267 267 267 266

GFSNGP_850_thetae_096.txt.gz
Theta_e
303 302 302 302 303 303 306 308 313 314 315 309 307 305 302 300 298 296 295 293 293 294 296 298 303 306 308 311 316 323 325 327 326 325 324 323 323 323 323 323 322 321 320 320
301 301 301 303 304 305 306 312 313 315 312 305 303 301 299 297 296 294 293 292 292 293 295 296 298 301 304 307 310 315 322 324 323 324 323 323 322 322 322 322 321 320 320 319
299 301 302 302 304 305 311 309 312 313 309 304 300 297 295 295 293 292 291 290 292 292 293 294 296 298 301 303 305 308 315 318 321 323 323 322 322 322 322 322 321 320 319 321
300 302 303 309 311 309 307 306 305 305 303 301 297 294 292 291 291 290 289 289 291 293 293 294 295 298 299 300 303 304 305 306 312 317 320 319 320 321 321 321 321 320 320 319
302 304 304 306 307 307 309 305 302 301 300 298 295 294 293 291 290 289 290 290 291 292 293 295 295 296 298 298 300 301 301 301 301 303 309 307 313 307 309 314 316 316 316 317
304 306 308 306 301 302 306 306 299 297 295 300 298 301 292 291 290 290 289 289 290 291 292 294 294 295 297 296 297 297 298 299 300 300 302 302 301 300 300 302 303 305 308 309
302 305 307 301 300 302 307 304 296 294 293 293 294 293 291 290 289 289 288 288 290 291 291 291 293 295 295 294 294 294 295 297 299 301 299 300 300 300 299 297 296 296 297 298
305 306 306 298 301 304 301 297 295 293 292 291 290 290 289 289 288 289 289 289 289 289 290 290 291 293 292 292 292 293 294 295 295 297 297 298 298 297 297 298 299 296 295 294
304 301 298 296 296 297 297 296 294 293 291 290 289 289 288 287 287 287 288 288 289 289 289 289 289 290 291 290 291 292 293 293 293 294 294 294 295 294 295 295 294 294 295 294
301 299 298 296 294 294 293 293 293 291 290 290 289 289 288 287 287 287 288 288 288 289 289 288 289 289 289 290 291 291 291 291 292 292 292 293 293 293 293 293 294 293 292 292
299 297 296 295 294 293 292 291 291 290 290 289 289 287 287 286 286 286 287 287 287 287 287 287 288 288 288 289 290 291 291 290 291 291 292 291 291 291 291 290 291 291 290 290
297 296 296 293 292 292 291 290 289 289 288 287 288 287 286 285 285 286 286 286 286 286 286 287 287 287 287 287 287 288 288 287 286 286 286 287 289 289 288 288 288 289 288 289
294 293 293 292 291 290 289 288 288 288 287 286 286 285 285 284 285 285 286 286 286 286 285 285 286 285 285 284 285 285 285 285 285 285 284 284 282 282 283 283 284 285 284 284
294 293 292 292 290 289 288 288 287 287 286 286 285 285 285 285 285 285 285 285 284 284 284 283 283 282 282 282 282 283 283 283 283 283 282 282 281 281 280 280 280 280 280 280
293 293 291 291 290 289 288 288 287 286 286 285 285 285 285 286 285 284 282 281 281 281 281 282 282 282 282 281 281 282 282 281 281 281 281 280 280 280 280 279 279 279 278 278
292 292 291 291 290 289 288 287 287 285 285 284 284 285 285 285 284 282 281 280 280 280 280 280 281 282 281 281 281 280 280 280 280 280 280 280 280 279 279 279 278 278 278 278
292 291 290 290 289 288 287 286 285 284 284 284 284 284 285 283 282 281 280 279 279 279 279 279 280 280 280 280 280 280 279 279 279 279 279 279 279 278 278 277 277 275 276 276
293 292 291 290 288 287 286 285 285 285 285 284 284 284 283 282 281 280 279 279 279 278 278 278 278 278 278 278 278 279 278 278 278 278 278 278 278 277 277 276 276 276 275 274
290 290 289 288 287 287 286 285 285 284 284 284 284 283 281 279 278 278 279 278 278 277 277 277 277 276 276 277 277 277 277 277 277 277 277 277 276 276 276 275 275 274 274 273
287 287 287 286 285 285 285 285 284 284 284 284 282 280 279 278 278 279 280 280 278 278 277 276 276 276 276 276 276 276 276 276 276 276 275 275 275 275 274 274 274 273 273 272
286 285 285 285 285 284 284 284 284 283 281 279 279 279 278 278 278 278 278 278 278 277 276 276 275 275 275 274 274 274 274 274 274 274 274 274 274 273 273 273 272 272 272 271
284 284 284 284 284 284 283 281 280 279 279 279 279 279 279 278 278 277 277 277 276 275 275 274 274 274 274 273 273 273 273 273 273 273 272 272 272 272 272 272 271 271 271 271
284 283 283 283 283 281 280 279 279 279 278 278 278 277 277 278 277 277 277 276 275 275 274 273 273 273 273 272 272 272 272 272 271 271 271 271 270 270 270 270 270 270 269 269
283 282 281 281 280 279 279 279 279 279 278 278 279 278 278 278 277 276 276 275 274 274 273 273 272 272 272 272 271 271 271 270 270 270 270 270 269 269 269 269 269 269 268 268
281 280 281 281 281 281 280 280 280 280 280 279 279 278 278 278 277 276 276 275 274 273 273 273 272 272 272 271 271 271 270 270 270 270 269 269 269 269 269 268 268 268 268 267
281 282 282 282 281 281 280 280 280 280 279 279 279 278 278 277 276 276 275 275 274 274 273 273 273 272 272 272 271 271 271 270 270 269 269 269 269 269 268 268 268 268 267 267
282 282 281 281 281 281 280 280 280 280 279 279 278 277 277 277 276 275 274 274 274 273 273 273 273 273 272 272 272 271 271 270 270 270 269 269 269 268 268 268 267 267 267 267

GFSNGP_850_thetae_102.txt.gz
Theta_e
301 301 301 301 301 301 300 300 300 300 300 303 304 300 297 295 294 293 292 291 291 291 291 292 295 298 300 302 305 309 315 321 324 326 324 324 323 323 326 325 323 323 323 320
301 301 301 300 298 298 299 300 300 301 302 305 299 296 295 294 292 292 291 290 291 291 291 291 293 295 297 300 302 305 308 314 315 321 323 324 323 325 323 322 323 323 321 320
296 298 298 297 299 300 301 304 301 301 303 300 297 294 292 292 291 290 289 289 290 291 291 292 292 293 295 297 300 302 305 306 309 310 312 320 322 323 323 323 324 322 321 320
297 297 296 296 303 303 303 302 302 306 304 299 295 292 291 290 289 289 289 290 290 291 292 293 293 294 295 297 297 300 302 304 305 304 305 305 306 312 318 320 319 320 320 320
294 295 297 300 301 302 303 300 298 301 298 295 292 292 290 289 289 288 289 289 289 290 291 293 294 294 295 296 297 298 299 300 301 303 304 305 302 300 302 313 315 315 314 314
293 297 301 300 299 298 302 303 296 296 298 296 295 298 291 289 289 288 288 289 290 290 291 292 293 293 294 294 295 295 296 296 298 299 301 303 302 301 300 302 301 300 301 302
297 299 300 297 296 298 306 299 294 292 294 297 292 291 288 288 288 288 288 289 289 290 290 290 292 293 293 293 293 292 293 295 297 298 298 297 298 299 300 300 301 300 300 300
300 300 302 295 297 300 296 293 291 290 290 289 288 288 287 287 287 288 288 289 289 290 290 291 291 291 291 291 291 293 294 294 294 295 296 296 297 297 297 296 296 295 296 296
300 299 296 294 294 294 294 292 290 289 289 288 287 287 287 286 286 287 287 288 288 289 289 289 290 291 290 289 291 292 294 294 293 293 294 294 295 295 295 295 295 294 293 292
299 296 295 293 292 291 291 290 290 289 289 288 287 286 286 286 286 286 287 287 287 288 287 287 287 287 287 287 288 290 292 292 293 293 292 292 292 293 292 292 292 292 292 291
297 296 294 293 291 290 290 290 289 289 288 287 287 286 286 286 286 286 287 287 287 287 286 286 286 285 285 286 286 286 285 286 287 289 291 291 291 289 289 289 289 290 289 289
294 294 293 291 290 290 289 289 288 288 287 286 286 286 286 286 285 286 286 286 286 285 284 283 284 284 283 283 284 284 284 283 283 283 283 284 286 287 288 287 288 288 287 286
293 292 291 289 289 289 288 288 287 288 287 286 285 285 286 285 285 285 285 285 283 282 282 282 282 282 282 282 282 282 282 282 282 282 282 281 281 281 282 282 283 283 283 283
292 291 290 290 288 288 287 286 286 286 286 285 285 285 285 285 284 284 284 283 282 282 282 282 282 282 281 281 281 281 281 281 281 281 281 280 280 280 280 279 279 279 279 279
292 292 291 289 288 287 287 286 286 285 285 285 285 285 285 284 282 281 281 281 281 281 281 281 281 281 280 280 280 280 280 280 280 280 280 280 279 279 279 279 278 278 278 278
290 290 289 289 288 287 287 286 286 285 285 285 285 284 284 283 281 280 279 279 279 280 280 280 280 279 279 279 279 279 279 279 279 279 279 279 278 278 278 278 277 277 276 276
290 289 289 288 288 287 287 286 286 285 285 284 284 283 282 280 280 279 279 278 277 277 278 278 278 278 278 278 278 278 277 278 277 277 277 277 277 277 277 276 276 276 275 275
291 291 291 290 288 287 286 285 285 284 284 284 284 282 280 279 279 279 278 277 276 277 277 277 277 277 277 277 277 277 277 276 276 276 276 276 276 276 276 275 275 274 274 274
291 292 290 289 288 287 286 285 285 284 284 284 282 281 279 278 278 279 279 277 277 276 276 276 276 277 277 276 276 276 275 275 275 275 275 275 275 275 274 274 274 273 273 272
289 289 289 288 287 286 286 285 285 284 284 283 281 279 278 278 278 278 278 277 277 276 277 277 276 276 275 275 274 274 274 274 274 274 274 274 274 274 273 273 273 272 272 272
288 287 287 286 286 285 284 284 284 284 283 279 278 278 277 277 277 277 277 277 276 276 275 275 275 274 274 274 274 273 273 272 272 272 272 272 272 272 272 272 271 271 271 271
286 286 285 285 285 285 284 283 281 279 278 278 278 278 277 277 277 277 277 276 276 275 275 274 274 273 273 273 273 272 272 272 272 271 271 271 270 270 270 270 270 270 270 269
285 285 284 284 284 283 281 279 278 278 278 278 277 277 278 278 278 277 277 276 275 275 274 274 273 273 273 272 272 272 272 271 271 271 270 270 270 269 269 269 269 269 268 268
284 284 283 283 281 280 279 279 279 278 278 279 279 279 278 278 278 277 276 276 275 275 274 274 273 273 273 272 272 272 271 271 271 270 270 270 269 269 269 269 268 268 268 268
283 283 282 281 280 280 279 280 280 280 279 279 279 279 279 278 277 277 276 276 275 275 274 273 273 273 272 272 272 272 272 271 271 271 270 270 270 269 269 269 268 268 268 268
283 281 281 281 280 280 280 280 280 280 280 279 279 278 278 277 277 276 276 275 274 274 273 273 272 272 271 271 271 271 271 271 271 271 271 271 270 270 269 269 269 268 268 268
281 282 282 282 281 281 281 280 280 279 278 278 277 276 276 276 275 275 274 274 274 273 272 272 271 271 271 270 270 269 270 270 270 269 269 269 269 269 269 269 269 268 268 267

GFSNGP_850_thetae_108.txt.gz
Theta_e
302 301 302 301 302 303 303 303 304 303 304 304 303 303 303 300 299 298 295 293 293 293 292 292 293 293 294 295 296 300 301 304 306 308 315 316 322 322 322 325 325 324 325 326
301 301 301 301 301 301 301 301 301 301 303 302 302 301 300 298 297 295 293 291 291 291 291 290 290 291 293 294 295 297 299 300 302 307 309 313 318 321 323 322 324 324 325 325
300 299 299 299 300 300 300 301 302 303 304 305 302 300 299 296 294 292 291 289 289 290 289 290 291 291 292 293 295 296 297 299 302 300 304 306 307 313 315 316 319 322 321 323
299 299 299 303 303 303 303 304 304 302 304 305 300 295 293 292 291 290 289 288 289 289 290 291 292 293 293 293 294 295 295 295 298 300 301 302 303 303 302 304 303 305 310 315
300 301 300 300 301 301 302 304 300 300 300 297 294 293 291 289 288 288 288 288 288 288 289 291 292 292 293 294 294 294 294 294 294 295 297 298 300 301 301 301 303 303 302 310
300 301 301 303 300 299 300 303 297 298 297 295 295 301 293 288 288 287 287 288 288 289 290 290 291 292 293 293 293 292 292 292 293 294 295 295 296 297 299 301 301 300 299 299
301 302 303 298 298 298 302 300 294 294 297 296 295 293 288 288 287 287 287 287 288 288 289 290 291 291 291 291 291 291 293 293 294 293 293 293 294 295 295 295 297 297 298 298
302 303 304 295 298 300 297 293 292 292 293 290 289 287 287 287 287 287 287 287 286 286 286 286 287 289 290 291 290 292 292 293 293 293 293 293 294 293 294 295 295 294 295 294
302 302 296 294 294 293 293 293 291 290 289 288 287 287 286 286 286 286 285 285 285 285 285 284 285 284 284 286 288 290 292 291 292 292 292 292 293 293 292 292 292 292 292 291
301 297 295 294 291 291 290 290 289 288 287 287 286 286 286 286 285 285 284 284 284 284 283 283 283 283 283 283 283 284 285 286 286 286 288 288 289 288 289 288 288 288 288 289
298 296 294 292 291 290 289 288 288 287 287 286 286 285 285 284 284 284 283 283 283 283 283 282 282 282 282 282 282 283 283 283 283 283 283 283 283 283 284 284 284 284 283 283
300 296 295 292 290 289 288 287 287 286 286 285 286 285 285 284 283 282 282 282 282 282 282 281 281 281 281 282 282 282 282 282 282 282 282 282 282 280 280 280 281 281 282 282
294 292 291 290 289 289 288 287 286 285 285 284 284 284 283 283 282 282 282 281 281 281 281 281 281 281 281 281 281 281 282 281 281 281 281 281 281 280 280 280 280 280 280 280
292 292 291 290 288 287 287 286 285 285 284 284 284 283 283 283 282 281 281 281 281 281 280 280 280 280 280 279 280 280 280 280 280 280 280 280 279 279 279 279 279 279 278 278
291 292 291 289 288 287 286 286 286 285 284 284 283 282 281 281 281 280 280 280 280 280 280 280 280 280 280 280 279 279 279 279 279 279 279 279 279 279 278 278 278 278 277 278
291 290 289 289 288 288 287 287 286 284 284 284 284 282 281 281 280 280 279 279 279 279 278 278 279 279 278 278 278 279 279 278 278 278 278 278 278 278 278 278 277 276 276 276
291 290 290 289 289 288 288 287 285 284 283 283 282 280 279 280 279 279 278 279 278 278 278 278 278 278 278 277 278 278 278 278 277 278 278 278 278 277 277 277 276 276 274 275
293 292 291 290 289 287 286 286 285 284 283 283 282 280 279 279 279 278 278 278 278 278 278 278 278 277 277 277 277 276 277 277 277 276 277 276 276 276 276 276 275 275 274 273
291 292 291 289 288 287 285 284 283 284 285 283 281 280 279 279 279 279 278 278 277 277 277 277 277 277 277 277 276 276 275 275 275 275 275 275 275 275 275 274 274 274 273 273
290 290 290 289 287 286 286 285 285 285 283 281 280 279 279 279 279 278 278 277 277 276 276 276 277 276 276 276 275 274 274 274 274 274 273 274 273 274 273 273 272 273 273 273
289 289 289 287 286 286 285 285 285 284 282 279 278 279 279 278 278 278 277 278 276 276 276 276 275 275 275 274 274 273 273 273 273 273 272 272 272 273 272 272 272 272 272 272
288 287 287 286 286 285 284 284 283 282 279 278 278 278 278 278 278 277 277 277 276 276 275 275 274 274 274 273 272 272 272 272 272 272 272 272 272 272 272 271 271 271 271 271
286 286 285 285 285 284 284 283 279 278 279 279 278 278 278 278 278 278 278 276 276 275 275 274 274 274 273 273 272 272 272 272 272 272 271 271 271 271 271 271 271 270 270 270
285 285 284 284 284 283 280 278 279 278 278 278 279 279 278 278 277 277 277 276 276 275 275 274 274 273 273 272 271 271 271 271 271 270 270 270 270 270 270 270 270 270 270 270
284 284 283 282 280 278 278 279 278 278 279 278 279 279 278 278 277 276 276 276 275 274 274 274 273 273 271 270 270 270 269 270 269 269 269 269 269 269 269 269 269 269 269 269
283 282 281 279 279 278 279 279 279 279 279 278 278 278 278 276 276 275 275 275 274 274 273 273 272 271 270 269 269 268 268 268 267 267 267 267 267 267 267 267 267 268 268 268
280 280 279 279 279 280 280 280 280 279 278 278 277 276 276 275 275 274 274 274 273 273 272 271 270 270 270 269 268 267 266 266 265 266 265 264 264 264 264 264 265 265 265 265

GFSNGP_850_thetae_111.txt.gz
Theta_e
305 305 303 304 305 305 305 306 306 305 306 306 305 305 305 304 303 302 299 297 296 295 294 293 291 290 292 294 294 294 295 298 301 304 306 311 315 320 323 324 325 326 327 327
304 303 303 303 303 303 303 304 304 304 304 304 303 305 304 302 300 299 296 294 293 292 291 290 291 290 290 291 293 293 293 295 296 300 303 304 309 315 320 322 323 323 326 327
303 301 301 301 302 302 302 303 303 305 304 306 306 305 302 299 297 295 293 292 290 290 290 290 290 289 289 289 291 292 293 294 296 297 301 301 302 306 305 312 317 320 321 323
302 301 301 304 304 304 304 304 304 305 306 304 303 298 295 294 294 292 290 289 289 289 289 290 289 290 289 289 290 292 293 292 292 293 296 298 300 301 300 302 304 305 305 307
302 302 302 303 303 302 302 303 303 303 302 300 297 296 293 291 290 289 288 288 288 289 289 289 289 290 290 291 290 290 291 290 291 292 293 295 297 296 298 300 300 300 299 297
302 302 303 305 302 300 301 303 299 300 301 299 298 303 295 289 289 288 288 288 288 289 288 290 290 290 291 291 291 290 290 290 292 292 292 292 292 293 293 295 295 298 298 297
303 304 306 300 299 300 303 302 296 296 299 298 298 293 289 288 288 288 288 288 288 287 285 286 289 291 291 291 290 290 292 292 293 293 292 292 293 293 293 293 294 294 296 296
305 307 306 297 300 301 298 295 294 295 296 292 290 289 288 288 287 287 287 287 288 287 286 285 284 285 286 288 288 289 290 291 292 292 293 294 294 293 293 293 293 293 293 292
303 303 297 295 295 294 294 294 293 292 291 290 289 288 287 287 287 286 286 287 286 286 286 285 285 285 284 284 284 285 285 285 285 286 286 286 287 288 289 290 292 292 292 291
302 299 297 295 294 292 292 291 290 290 289 288 288 287 287 287 286 286 286 286 286 285 285 285 284 284 284 285 284 284 284 285 285 284 283 283 284 284 284 284 284 284 284 284
300 297 295 294 293 291 290 289 289 288 288 287 287 287 286 286 285 286 286 285 285 284 284 283 283 283 283 283 285 285 284 284 285 284 285 284 282 281 281 281 282 283 282 282
303 298 297 294 292 290 290 288 288 287 287 287 287 286 286 285 284 284 284 284 284 284 283 282 282 282 282 282 282 283 284 283 283 283 283 283 284 283 280 280 281 281 281 282
296 295 294 292 291 290 289 288 287 287 286 286 286 286 285 284 284 283 284 284 283 283 282 281 281 281 281 281 282 282 282 282 282 282 282 282 282 282 282 282 281 279 280 280
293 292 292 292 290 290 289 288 288 287 287 286 286 286 285 284 284 284 283 283 282 282 281 281 280 280 280 280 280 281 282 282 282 281 282 282 282 281 281 281 281 280 280 279
293 294 293 290 290 289 289 288 288 288 287 286 286 286 285 284 283 282 282 281 280 280 280 280 280 280 280 280 281 280 279 280 281 281 281 281 281 281 281 280 280 279 278 277
292 291 291 290 290 289 289 289 288 287 286 285 283 283 282 282 281 280 280 280 280 280 279 279 279 280 279 280 281 281 281 279 280 281 281 281 280 280 280 280 280 279 277 276
292 291 291 291 290 290 290 289 288 287 286 285 283 282 281 280 279 279 279 279 279 279 279 279 279 278 278 278 279 280 280 280 279 280 280 279 279 279 279 279 279 278 278 276
294 293 292 291 290 290 289 288 287 287 285 283 282 281 280 280 279 279 279 279 278 278 278 278 277 277 277 277 277 278 278 279 278 278 278 278 278 278 278 278 278 277 277 276
293 293 292 291 290 289 288 287 286 285 285 284 281 280 279 279 279 279 278 278 279 278 277 277 277 277 277 276 277 277 277 277 277 277 276 277 277 277 277 276 276 276 276 276
292 292 291 290 289 287 286 285 285 285 284 282 281 279 280 279 279 278 278 277 277 277 277 277 276 275 276 276 276 276 276 276 276 276 276 276 276 275 276 276 275 275 275 274
290 289 289 288 287 286 285 285 285 284 282 281 279 279 279 279 278 279 280 280 277 276 276 276 276 275 275 275 276 275 275 275 275 275 275 275 275 275 275 274 274 274 274 273
289 288 288 287 286 285 285 284 284 283 281 279 279 279 278 278 277 277 278 278 276 276 276 276 275 275 274 274 275 274 274 274 274 274 274 274 274 274 274 274 273 273 273 273
287 287 287 286 285 285 284 284 283 280 279 279 278 279 280 280 280 281 281 277 277 276 276 276 275 274 274 273 273 273 273 273 273 273 273 273 273 273 273 273 273 272 272 272
286 286 285 285 284 284 284 281 279 279 279 278 278 279 279 280 279 279 277 277 276 276 275 275 274 274 273 273 273 272 272 272 272 272 271 271 271 271 271 271 271 271 271 271
285 285 284 284 281 280 279 279 279 278 279 279 278 278 278 278 279 278 277 276 275 275 275 274 274 273 271 271 270 270 270 270 269 269 269 269 269 269 269 269 269 269 269 269
282 282 282 282 282 280 280 280 281 280 281 280 279 278 277 277 276 276 275 274 274 273 272 271 272 272 270 269 268 268 268 267 267 266 265 266 266 266 266 266 265 266 266 266
283 282 282 281 281 281 281 282 282 281 281 280 279 277 276 275 275 274 274 273 272 271 271 269 269 269 268 268 266 266 265 265 264 264 263 263 263 263 263 262 262 263 263 263

GFSNGP_850_thetae_114.txt.gz
Theta_e
307 307 306 305 305 306 306 307 308 309 308 307 307 307 306 304 303 302 299 297 295 294 292 291 290 291 290 289 290 291 292 293 295 297 299 302 304 308 313 314 315 317 322 326
305 305 304 304 304 304 304 304 305 305 306 306 305 307 306 303 301 298 296 294 293 291 290 290 290 289 289 289 289 289 290 290 293 296 298 299 301 305 306 313 316 319 325 325
304 303 302 302 303 303 303 304 304 305 306 306 306 303 299 299 296 294 293 291 290 289 289 290 290 289 289 288 289 289 289 291 291 292 294 296 298 301 302 303 307 307 313 317
304 302 302 302 305 305 304 304 305 306 305 304 301 296 294 293 293 291 290 289 289 289 289 290 290 290 289 289 290 289 289 290 291 291 291 293 295 296 297 300 302 300 302 306
303 302 303 303 304 303 302 302 303 304 303 301 298 295 292 291 290 289 288 288 288 288 289 290 290 289 290 290 291 290 289 290 291 291 292 291 291 292 293 295 296 297 298 300
302 302 303 305 302 301 301 302 299 299 301 300 299 301 293 290 289 289 288 288 288 288 289 290 290 290 290 290 291 290 290 290 291 292 292 291 291 291 291 293 294 294 295 296
304 304 306 301 300 300 303 301 296 296 298 300 297 293 289 289 288 288 289 288 287 286 285 284 284 285 286 287 286 285 286 288 291 292 292 293 292 293 293 292 293 294 293 293
305 306 306 298 300 301 298 295 295 296 295 292 290 289 289 288 288 288 288 288 287 286 286 285 285 285 284 284 285 285 284 283 284 285 285 285 286 287 289 292 293 292 292 292
303 303 297 296 295 295 295 295 293 293 292 290 289 289 288 288 287 287 287 286 286 286 285 285 285 285 285 285 285 285 285 285 285 283 283 284 284 284 285 284 284 284 285 288
302 299 297 295 294 293 293 292 291 291 290 289 288 288 287 287 287 287 286 286 286 285 285 284 284 284 285 286 285 284 285 284 284 285 285 283 283 282 283 283 283 282 283 282
300 297 296 295 293 292 291 290 290 289 289 288 288 287 287 287 286 286 286 285 285 284 283 283 282 283 283 283 284 284 284 284 283 283 284 284 283 282 281 279 280 281 280 281
303 299 298 295 293 291 290 289 289 288 288 288 287 287 286 286 285 285 285 285 284 283 282 282 282 282 282 282 282 283 283 283 283 283 283 282 283 283 282 281 280 279 279 280
298 296 295 294 292 291 289 289 288 288 287 287 287 287 286 285 284 285 284 284 283 282 282 281 281 282 281 281 282 283 283 283 282 282 283 282 282 282 281 281 280 280 279 279
294 293 293 292 292 290 289 289 288 288 287 287 287 286 286 285 285 284 283 283 282 281 281 281 281 282 282 282 281 280 282 282 282 281 281 282 282 281 281 281 280 280 278 279
294 295 293 291 291 290 289 289 288 288 288 288 287 286 285 284 283 283 282 281 281 280 280 280 280 280 281 282 282 282 280 281 281 281 281 281 281 280 280 280 279 279 279 277
293 292 291 291 290 290 290 289 289 288 287 287 286 285 284 283 282 282 282 281 280 279 278 278 278 278 279 281 281 281 281 280 280 280 280 280 280 280 279 279 279 279 278 277
292 292 291 291 290 290 290 290 288 287 286 285 284 283 282 281 280 279 279 279 279 279 279 279 279 279 279 279 280 279 279 279 279 279 279 278 279 279 278 278 278 278 277 277
294 293 292 291 291 291 290 289 288 287 286 284 283 282 281 280 280 279 279 278 279 278 279 279 279 278 278 278 279 278 278 278 278 278 277 277 277 277 277 277 276 276 276 276
294 293 292 291 290 290 289 288 287 286 285 284 282 281 280 279 279 279 279 280 280 279 278 278 278 277 276 276 278 277 277 277 277 277 276 276 276 276 276 276 275 275 275 275
294 292 291 290 290 289 288 287 286 286 285 283 281 280 280 280 279 279 278 278 277 277 277 277 276 276 276 276 276 277 276 276 276 276 275 275 275 275 275 275 275 274 274 274
292 291 290 289 288 287 286 286 286 285 283 281 280 280 280 279 279 281 280 280 277 277 277 276 276 276 275 275 276 275 275 275 275 275 275 275 274 274 274 274 274 274 273 273
290 290 289 288 287 287 286 285 285 284 282 280 279 279 279 278 278 280 280 279 277 277 277 277 276 275 274 274 275 274 274 274 274 274 273 273 273 273 272 273 273 273 272 272
288 288 288 287 286 285 285 284 283 282 280 279 279 280 281 281 281 282 280 278 278 276 277 277 275 274 274 274 274 273 273 273 272 272 272 271 271 271 271 271 271 271 271 271
287 286 286 285 285 285 284 283 281 278 279 279 279 280 280 280 280 279 279 277 277 276 276 275 275 274 273 272 272 272 271 271 270 270 270 269 269 269 269 269 269 269 269 269
285 285 285 285 283 282 282 279 278 278 279 279 279 279 279 280 280 279 278 277 276 276 274 274 274 273 272 271 271 270 269 268 268 268 268 267 266 266 266 266 266 266 266 267
283 283 284 283 282 280 280 280 280 280 281 280 279 279 278 278 277 277 276 275 274 274 273 272 272 271 271 270 269 268 268 267 267 267 266 265 264 264 264 264 264 264 263 263
284 283 283 283 282 282 281 282 282 282 282 281 279 278 277 276 276 275 275 273 273 272 271 270 270 269 269 269 269 268 267 266 266 266 265 264 264 264 264 263 263 263 262 261

GFSNGP_850_thetae_117.txt.gz
Theta_e
308 308 308 308 307 306 307 306 307 306 308 307 307 305 303 302 299 296 295 293 292 291 290 291 291 291 290 290 290 290 289 290 290 291 292 295 296 298 299 301 301 304 312 313
305 305 305 305 304 303 304 304 304 303 304 305 303 301 299 298 296 294 293 291 290 289 289 291 291 290 289 290 290 290 289 289 289 289 289 290 293 297 299 299 299 303 305 300
304 303 302 301 302 304 303 306 305 300 305 302 298 296 296 294 293 292 291 289 288 288 289 290 289 290 291 291 291 291 290 289 289 289 289 290 292 293 294 293 295 299 301 297
304 302 302 305 304 303 303 303 304 304 301 297 295 293 292 291 290 289 288 287 288 289 290 290 290 291 292 292 291 292 291 290 290 289 290 292 292 292 292 292 293 294 298 299
302 302 303 303 301 299 299 301 299 300 299 295 293 292 291 290 289 288 288 288 288 289 289 290 290 291 292 292 291 292 291 291 290 291 292 292 292 292 292 293 293 293 294 295
301 301 296 302 301 301 300 297 296 297 298 298 295 296 290 289 288 288 288 288 288 288 287 286 285 285 285 284 283 283 283 284 288 291 293 293 292 292 292 292 293 293 294 295
300 299 302 300 299 300 299 295 295 295 296 298 294 292 289 288 288 289 288 287 286 285 285 285 285 285 285 285 285 285 284 282 283 284 284 284 286 290 292 293 293 293 292 292
298 299 302 296 299 300 296 294 294 294 293 291 290 289 288 288 288 288 287 287 286 285 285 285 285 286 285 285 285 285 285 284 283 282 283 283 284 284 284 285 285 286 289 291
299 297 296 295 295 294 295 293 293 292 291 290 289 288 288 288 287 287 286 286 286 285 285 285 286 286 285 285 284 284 284 284 284 283 283 283 283 283 284 284 284 283 283 283
299 298 296 294 293 293 292 292 291 291 290 289 288 288 287 287 287 286 286 285 285 284 284 283 283 284 285 284 283 284 283 283 283 283 283 282 282 282 282 281 282 281 282 282
298 297 295 294 292 291 290 290 290 290 289 288 288 287 287 287 286 286 285 285 284 283 282 282 282 282 283 283 283 283 283 283 283 282 282 282 282 281 280 279 280 280 279 280
299 296 296 294 292 291 290 289 289 289 288 288 288 287 287 286 285 285 284 284 283 282 282 281 281 281 282 283 283 283 282 282 282 282 282 281 281 281 280 279 278 279 279 279
297 297 295 293 292 290 289 289 288 288 288 287 287 287 286 285 284 284 283 283 282 282 280 281 281 282 281 281 281 282 282 281 281 281 281 281 281 280 280 280 279 277 278 279
294 293 292 291 291 290 289 289 288 288 287 287 286 286 285 285 284 283 283 283 282 281 280 280 281 282 282 282 281 281 282 281 281 281 280 280 280 280 279 279 279 278 277 277
294 295 292 291 290 289 289 288 288 288 287 287 286 285 285 284 283 282 282 281 280 280 280 280 281 282 282 282 281 280 280 280 280 279 280 279 279 279 279 278 278 277 277 277
293 293 291 290 290 289 289 288 288 288 288 287 286 285 284 283 282 282 282 280 280 280 279 280 280 279 280 280 280 280 279 279 279 278 278 279 278 278 277 277 277 276 276 276
291 291 290 290 290 290 289 289 288 287 287 286 285 284 284 283 282 280 280 279 279 279 279 278 278 278 278 279 279 279 278 278 278 278 277 277 277 277 276 276 276 276 275 275
292 291 291 290 290 290 290 289 288 287 286 285 284 282 282 281 280 279 279 279 278 278 277 277 277 277 277 278 278 278 278 277 277 277 276 276 276 276 275 275 275 275 274 274
293 292 291 291 291 290 289 288 287 287 286 284 283 282 282 280 279 279 280 280 278 277 277 278 277 276 277 277 277 277 276 276 276 276 275 275 275 275 274 274 274 274 274 273
293 293 292 291 290 290 289 288 287 286 285 285 284 282 280 279 279 279 278 277 277 277 277 277 277 276 276 276 276 276 275 275 275 274 274 274 274 274 274 274 273 273 273 273
292 291 291 291 290 289 288 287 287 286 285 283 281 280 279 279 279 280 280 279 277 277 277 277 277 276 275 275 275 275 274 274 274 274 273 273 273 272 272 272 272 272 272 272
291 291 290 289 288 287 286 286 285 285 283 281 279 279 279 279 280 281 280 278 277 277 277 277 277 275 274 274 274 274 273 273 272 272 272 271 271 271 270 270 270 270 270 270
290 289 289 288 287 286 285 285 284 283 282 279 279 279 280 280 280 280 280 278 277 277 276 276 275 275 274 274 273 273 272 271 271 270 270 269 269 269 268 268 268 268 268 268
288 287 287 286 286 285 285 283 282 280 279 279 280 280 280 280 280 279 279 277 277 276 276 275 275 274 273 272 272 271 270 270 270 269 268 268 268 267 267 267 266 266 266 266
287 286 286 285 285 284 283 282 280 278 279 279 280 280 280 280 280 279 278 277 276 275 275 274 274 273 272 271 271 270 270 269 268 268 267 267 267 266 266 265 265 265 264 264
284 285 285 284 284 284 283 280 279 279 279 279 279 279 279 279 278 278 276 276 275 274 274 273 272 271 271 270 270 269 269 268 268 267 267 266 266 265 265 265 264 264 263 263
284 284 283 282 282 281 280 281 280 280 280 280 280 279 278 277 276 276 275 275 274 273 272 272 271 271 270 269 269 269 268 267 267 267 266 266 265 265 264 264 264 263 263 262

GFSNGP_850_thetae_120.txt.gz
Theta_e
308 308 310 310 310 309 307 307 307 306 306 305 304 302 299 297 296 294 293 291 290 289 289 291 291 291 292 292 291 291 291 290 289 289 289 289 290 292 293 294 295 296 297 299
304 305 305 307 306 304 303 304 305 304 304 301 299 297 296 295 294 293 291 290 288 287 290 290 291 292 292 293 293 292 291 290 290 290 289 289 290 290 291 292 294 293 294 295
304 303 301 302 302 302 303 305 305 302 304 299 297 297 295 292 292 291 289 287 287 290 290 291 291 292 292 292 292 292 293 292 292 292 290 289 289 289 290 290 291 290 291 294
305 302 304 303 303 303 303 301 302 302 300 297 296 293 292 291 290 288 287 286 288 289 290 290 291 292 290 288 288 290 292 293 293 292 291 290 290 289 289 289 290 290 291 291
301 302 302 303 300 298 298 300 297 301 296 294 292 291 290 289 288 287 287 287 288 288 289 288 286 284 284 284 284 284 284 285 286 290 291 291 291 290 290 290 291 290 290 292
299 301 295 294 300 300 297 297 296 296 298 294 291 292 290 289 287 287 287 287 287 287 286 285 285 285 285 285 284 283 282 282 284 284 283 284 286 288 289 289 289 290 291 291
299 298 300 299 298 299 299 296 295 295 295 297 295 292 290 288 287 287 287 286 286 285 286 285 285 285 285 285 285 284 283 283 283 283 283 283 283 283 283 283 283 284 286 289
296 295 298 296 298 300 295 294 294 294 294 293 292 289 288 288 288 287 287 286 285 285 285 286 286 285 285 285 284 284 284 284 283 283 282 283 283 283 283 284 284 283 283 283
299 295 294 295 295 295 295 294 293 292 290 290 289 288 288 288 288 287 286 286 285 285 285 285 285 285 284 284 283 283 283 283 283 283 283 283 283 283 283 282 282 282 282 282
298 295 295 294 293 293 293 293 292 291 290 289 288 288 288 287 286 286 285 285 285 284 283 283 284 284 283 283 283 283 283 283 282 283 283 283 281 280 281 281 281 280 281 281
297 296 295 294 293 291 291 291 291 290 289 289 288 287 287 286 286 285 285 285 283 282 282 282 283 283 283 282 282 283 283 282 282 282 282 281 281 280 279 278 279 279 279 279
294 295 295 294 292 291 290 290 290 289 288 288 287 287 286 286 285 285 284 283 282 282 281 281 282 282 282 282 282 282 282 282 281 281 280 280 280 279 279 278 278 278 278 278
296 296 296 293 291 290 289 289 289 288 288 287 287 287 286 285 284 284 283 282 281 281 282 282 282 281 281 281 282 281 281 281 281 280 280 280 280 279 279 278 278 277 277 277
296 295 292 291 290 290 289 289 288 288 288 287 287 286 285 284 283 283 283 282 281 280 281 282 282 282 281 280 280 281 281 280 280 280 280 279 279 278 278 277 277 277 276 276
294 294 292 292 290 289 289 288 288 287 287 286 286 285 284 283 283 283 282 281 280 280 281 281 281 281 281 281 280 280 280 279 279 279 278 278 277 277 277 276 276 276 275 275
293 293 292 290 289 289 288 288 288 287 286 286 285 285 284 284 283 282 281 279 279 279 279 280 280 280 280 279 279 279 278 278 278 277 277 277 277 276 276 275 275 274 274 274
291 290 290 289 289 288 288 288 288 287 287 286 284 284 284 283 282 282 279 278 278 278 277 278 278 279 279 278 278 278 278 278 277 277 276 276 276 275 275 275 274 274 274 274
292 291 290 290 289 289 289 288 288 287 287 285 285 285 283 282 281 279 278 277 277 277 277 277 277 277 278 278 278 277 277 277 276 276 275 275 275 275 275 274 274 274 273 273
291 291 290 290 290 290 289 288 288 287 286 285 285 284 282 280 279 279 279 277 277 278 278 277 276 276 277 277 277 276 276 275 275 275 275 275 274 274 274 273 273 273 273 273
292 292 291 290 290 290 289 288 287 287 286 284 283 283 282 279 279 280 279 277 277 277 277 276 276 276 276 275 275 275 275 275 274 274 274 273 273 273 272 272 272 272 271 271
293 292 291 291 290 290 289 288 287 286 285 284 284 283 281 279 279 278 277 277 277 277 277 277 277 275 275 275 275 275 274 274 273 273 272 272 271 271 270 270 270 270 269 269
292 292 291 291 290 289 288 287 286 286 285 283 280 279 279 279 280 280 279 277 277 277 277 277 276 275 275 274 274 274 273 272 272 271 271 270 270 269 269 268 268 268 267 267
291 291 290 289 289 288 286 286 285 285 283 281 280 279 279 280 280 280 279 278 277 277 276 276 275 275 274 273 273 272 272 271 271 270 269 269 268 268 267 267 266 266 266 266
289 289 289 288 287 286 286 284 284 282 280 279 278 279 280 280 279 279 279 278 277 276 276 275 275 274 273 272 272 271 271 270 269 269 268 268 267 267 266 266 266 265 265 265
287 287 287 286 286 285 284 283 282 279 278 279 280 280 280 280 280 279 278 277 276 276 275 274 274 273 272 272 271 270 270 269 269 268 268 267 267 266 266 265 265 265 264 264
286 286 286 285 285 285 284 283 281 278 280 280 280 280 280 280 279 278 278 277 276 275 274 273 273 272 271 271 270 269 269 269 268 267 267 267 266 266 266 265 265 264 264 264
284 284 284 284 284 283 283 281 279 278 279 279 280 279 279 278 278 277 276 275 275 274 273 272 271 271 270 270 269 269 268 268 267 267 267 266 266 266 265 265 265 264 264 264

GFSNGP_850_thetae_123.txt.gz
Theta_e
308 308 309 310 310 310 309 308 309 307 306 304 304 302 297 295 294 293 292 290 289 289 291 291 291 291 292 292 293 292 291 291 292 291 290 290 290 290 290 290 290 291 292 293
305 305 306 308 308 307 308 308 306 304 304 299 298 297 296 295 294 292 291 289 288 289 290 289 290 290 291 291 292 292 293 293 293 292 292 291 291 290 290 290 290 290 290 289
308 304 302 302 304 305 305 304 304 300 302 298 297 295 294 292 292 291 289 288 287 288 288 288 288 286 284 284 285 287 291 293 293 293 293 292 292 293 292 292 292 291 289 288
307 302 304 303 301 302 303 301 302 301 299 297 297 293 292 291 291 289 289 287 287 287 286 285 284 284 283 283 284 285 285 285 286 289 292 293 293 293 292 292 291 290 290 290
304 303 302 302 300 297 298 300 297 299 296 295 292 291 290 290 290 288 288 287 286 285 285 285 285 285 285 284 284 284 284 284 284 284 285 285 285 286 289 292 290 289 289 291
299 301 296 295 300 299 296 297 295 297 295 293 291 293 287 289 288 287 286 286 285 285 285 285 285 285 285 285 284 283 283 283 283 284 284 284 283 283 284 284 283 283 284 288
300 299 300 299 298 299 298 296 295 295 296 294 292 293 291 289 287 287 286 286 286 286 286 285 285 285 285 285 284 284 283 283 283 283 283 283 283 283 283 284 283 283 282 282
297 297 301 297 298 299 294 294 294 294 294 295 294 291 289 288 287 286 286 285 285 286 286 285 285 284 284 283 283 283 283 283 283 283 283 282 283 283 283 283 283 283 283 282
299 298 294 295 295 295 295 295 292 293 292 293 290 289 288 287 287 287 286 285 285 285 285 286 285 283 283 283 283 283 283 283 283 282 282 282 282 282 282 281 281 281 281 281
298 295 293 294 294 293 293 293 293 292 290 289 289 288 288 288 287 286 286 285 285 284 284 284 283 283 283 283 283 283 283 282 282 281 282 281 281 281 281 280 280 279 279 279
297 295 295 294 294 292 292 292 291 290 290 289 288 288 287 286 286 285 285 285 283 282 282 283 283 283 282 283 283 282 282 281 281 281 281 280 280 279 278 278 278 278 278 278
296 296 295 294 293 291 291 290 290 290 288 288 288 287 287 286 285 285 285 283 282 281 281 282 282 282 282 282 282 281 281 281 280 280 280 279 279 278 277 277 276 276 276 276
295 295 295 293 292 291 290 290 289 289 288 288 287 287 286 286 285 285 283 282 281 281 281 281 281 281 282 282 281 280 280 280 280 280 279 279 278 278 278 277 277 277 276 276
295 295 291 291 290 290 290 289 288 288 288 287 287 286 286 285 285 283 282 281 280 281 282 282 282 282 281 280 280 279 279 279 279 279 278 278 277 277 277 276 276 275 275 275
294 295 293 291 290 289 289 288 288 288 287 287 286 285 285 285 283 282 282 280 279 281 281 282 282 281 280 280 279 279 279 278 278 277 277 277 276 276 275 275 274 274 274 274
294 293 291 291 289 288 288 288 288 287 287 286 285 285 285 284 283 282 280 279 279 280 281 281 280 279 279 279 279 279 278 277 277 277 276 276 275 275 275 275 275 274 274 273
291 289 289 289 288 288 288 288 288 287 286 286 286 285 285 283 282 281 279 278 278 279 279 279 279 278 278 278 278 278 277 277 276 276 276 275 275 275 275 274 274 273 273 273
293 292 291 290 289 288 288 288 288 287 286 286 286 285 285 282 282 281 278 278 278 278 278 278 277 277 277 277 277 277 276 276 276 275 275 275 274 274 273 273 273 272 272 272
292 291 290 290 289 289 288 288 288 287 287 286 285 284 284 282 281 279 278 277 277 277 277 276 276 276 276 276 276 276 276 275 275 274 274 273 273 273 272 271 271 271 271 271
291 290 290 290 289 289 289 288 288 287 286 285 285 283 281 279 279 278 277 277 277 277 277 276 276 276 275 275 275 275 275 274 273 273 273 272 272 271 271 270 270 270 269 269
291 291 290 290 290 290 289 289 288 286 286 285 284 283 281 279 279 279 277 277 277 276 276 277 277 276 275 275 274 274 274 273 273 272 272 271 271 271 270 270 269 269 268 268
292 292 291 291 290 290 289 288 287 286 285 284 282 283 280 279 278 277 277 277 277 277 277 277 276 275 275 274 274 273 273 272 272 271 271 271 270 270 269 269 268 267 267 266
292 292 291 291 290 289 288 287 286 286 285 284 283 281 279 279 279 280 279 277 277 277 276 276 275 275 274 273 273 272 272 272 271 271 270 270 270 269 268 268 267 267 267 266
292 291 290 290 289 288 287 285 285 284 283 280 279 279 279 280 279 278 279 278 277 277 276 275 275 274 273 272 272 272 271 271 271 270 270 269 268 268 267 267 267 267 266 266
289 289 289 288 287 286 285 284 283 282 280 279 278 278 279 279 280 279 279 278 277 276 275 275 274 273 272 272 271 271 271 270 270 270 269 268 268 267 267 266 266 266 266 265
287 287 287 286 286 285 284 284 283 280 278 278 279 280 280 280 279 279 278 277 277 275 274 273 272 271 271 271 271 271 270 270 269 268 268 267 267 267 266 266 266 266 265 265
285 285 285 284 284 284 284 283 282 280 279 280 280 280 280 280 279 278 277 276 275 274 273 272 271 271 271 271 270 270 270 269 268 268 267 267 267 266 266 266 266 266 265 265

GFSNGP_850_thetae_126.txt.gz
Theta_e
306 307 308 307 309 309 308 307 309 309 307 306 306 304 298 294 295 294 292 291 289 289 289 290 292 292 292 292 293 293 293 293 292 292 292 291 291 290 290 290 289 289 289 288
306 306 307 307 307 308 308 308 307 307 306 300 297 296 295 295 294 293 291 290 289 290 290 290 291 290 287 286 286 287 290 292 292 293 292 292 292 291 292 291 291 290 289 287
311 305 305 307 306 306 307 305 304 302 302 297 297 296 294 294 293 292 290 290 289 289 289 290 289 284 284 284 285 284 284 284 285 286 286 287 289 291 293 291 291 291 291 290
309 303 306 303 301 302 304 302 301 300 298 297 296 294 293 293 292 291 290 289 288 288 288 287 285 284 284 283 283 284 284 284 284 284 284 284 284 284 284 285 288 291 292 291
307 304 303 301 300 299 300 300 298 298 296 294 292 293 291 291 291 290 289 287 287 287 286 285 285 285 284 283 283 282 282 283 283 283 284 284 284 284 283 284 284 283 284 284
301 304 298 295 300 298 296 297 296 297 296 294 292 295 285 290 289 288 287 286 286 285 285 286 285 285 285 284 283 282 282 282 282 283 283 283 284 283 283 283 282 283 282 282
303 301 300 298 299 298 298 296 295 296 295 293 292 293 293 290 288 287 286 285 285 285 286 285 285 285 284 283 283 282 282 282 282 283 283 283 283 284 283 283 283 282 282 281
301 302 302 298 298 300 294 294 295 295 295 294 293 292 292 289 287 286 285 285 286 286 286 286 285 284 283 283 282 282 282 282 282 282 282 283 283 283 283 283 282 282 282 281
303 301 294 296 295 295 295 295 293 294 294 293 293 291 289 287 286 286 285 285 285 286 286 286 284 283 283 282 282 282 282 282 282 282 282 282 282 282 282 281 281 280 280 279
298 295 294 294 294 294 294 294 293 292 292 292 290 288 287 286 286 286 285 285 285 285 285 285 283 283 283 282 281 281 281 282 281 281 280 280 280 280 280 280 279 279 279 278
297 295 294 294 294 293 292 292 291 291 291 290 289 288 287 287 286 285 285 285 285 284 283 283 282 282 282 281 281 281 282 281 280 279 279 279 279 278 278 277 277 277 276 276
298 296 296 294 293 292 290 289 290 290 289 288 289 288 287 286 286 285 285 284 283 282 282 282 282 282 281 281 281 281 281 280 279 279 279 278 278 277 276 276 275 275 275 275
296 296 295 294 293 292 291 290 290 289 289 288 287 287 287 286 285 285 284 282 281 281 281 281 281 281 281 280 280 281 280 279 279 278 278 278 278 277 276 276 276 275 275 274
295 295 291 292 291 291 291 289 289 289 288 288 287 287 286 285 284 283 282 281 281 281 282 281 280 280 280 280 280 279 279 278 278 278 277 277 276 276 276 276 275 275 274 274
294 295 294 292 291 290 289 288 288 287 287 287 287 286 285 285 283 282 281 280 280 281 282 281 281 280 279 279 279 279 278 278 277 277 276 276 276 275 275 275 274 274 274 274
293 294 292 291 289 288 288 288 288 287 287 286 286 285 285 284 283 282 281 279 280 281 281 280 279 279 278 278 278 278 277 277 276 276 276 275 275 275 274 274 273 273 273 273
292 289 289 288 288 288 288 288 288 287 286 286 286 285 285 284 282 281 279 278 279 280 280 279 278 278 278 277 277 277 276 276 275 275 275 274 274 274 273 273 272 272 272 271
293 292 290 289 289 288 288 288 288 287 286 286 286 285 285 284 282 280 279 278 278 278 278 278 277 277 277 276 276 276 276 275 275 275 274 274 273 273 272 272 271 271 271 270
292 291 291 290 289 289 288 288 288 287 287 286 286 285 284 283 281 280 278 277 277 277 277 277 276 276 276 276 276 276 275 275 274 274 273 273 272 272 271 271 270 270 269 269
291 290 290 289 289 289 288 288 288 287 287 286 286 285 284 282 280 278 277 277 276 277 276 276 276 276 276 275 275 275 274 274 273 273 272 272 271 270 270 270 269 269 269 268
291 290 290 289 289 289 289 289 288 287 287 286 285 284 283 279 278 278 277 277 277 276 276 277 277 276 275 275 274 274 274 273 273 272 271 271 271 270 270 270 269 269 269 268
291 290 290 290 290 289 289 289 288 287 286 285 284 283 280 278 279 278 277 277 277 276 277 277 276 275 275 275 274 273 272 272 272 271 271 271 270 270 269 269 269 268 268 268
292 291 291 290 290 290 289 288 287 286 286 284 284 283 281 279 279 278 278 277 277 277 276 276 276 275 274 273 273 272 272 272 272 271 271 270 270 269 269 269 268 268 268 267
292 291 291 290 290 289 288 287 286 285 285 284 283 282 281 279 278 278 278 277 277 277 276 276 275 274 273 272 272 272 272 271 271 271 270 270 269 269 268 268 268 268 267 267
291 291 290 289 288 288 287 286 285 284 283 282 281 279 278 278 280 279 279 278 277 276 276 275 274 273 272 272 272 271 271 271 271 270 269 269 269 268 268 268 267 267 267 266
289 289 288 288 288 287 286 285 284 283 282 281 279 278 279 279 279 279 278 277 277 276 275 274 273 272 272 271 271 271 271 270 270 269 269 268 268 268 268 267 267 267 267 267
287 287 287 286 286 285 285 284 284 283 282 281 279 279 279 279 279 279 278 277 277 275 274 273 272 271 271 271 271 271 270 270 269 269 268 268 268 268 268 267 267 267 267 266

GFSNGP_850_thetae_129.txt.gz
Theta_e
310 309 309 309 310 310 309 310 311 312 311 310 310 310 308 300 296 294 293 292 291 291 292 291 290 290 288 286 285 286 289 291 290 290 290 291 291 292 291 291 290 289 288 287
309 308 308 309 309 309 309 309 309 310 311 305 300 299 298 297 296 294 293 291 291 290 291 289 288 286 284 285 285 284 284 284 284 284 284 284 286 289 292 291 291 290 290 288
309 308 307 309 308 308 309 309 310 311 310 302 301 300 299 297 296 294 292 291 290 290 289 288 286 284 284 284 284 284 284 284 284 284 284 284 284 284 284 284 284 287 289 289
309 306 310 307 302 303 306 307 305 303 302 301 300 295 294 295 295 292 292 291 289 288 288 286 285 285 284 283 283 283 283 283 283 283 284 283 283 283 283 283 282 283 282 282
309 308 307 306 303 303 305 304 303 303 299 295 294 294 292 292 293 293 291 289 288 287 286 285 287 286 286 284 284 283 283 283 283 283 282 283 283 283 282 282 282 282 282 282
308 308 308 304 300 299 299 303 299 300 298 296 295 299 298 292 292 290 288 288 287 286 286 287 286 288 286 284 283 283 282 282 282 282 282 282 281 281 281 281 281 281 281 281
309 308 306 301 300 298 303 304 298 299 297 295 297 296 293 291 289 288 287 286 286 286 287 287 287 288 284 283 283 282 281 281 281 282 282 281 281 281 281 281 282 281 281 280
306 306 307 299 299 302 300 295 296 296 296 295 293 293 292 289 288 286 286 285 286 286 286 287 287 284 283 283 282 281 281 281 281 281 281 281 281 280 280 281 281 281 281 280
306 306 297 299 297 296 296 295 295 296 295 294 292 292 291 288 286 286 286 285 285 286 286 286 284 283 283 282 282 281 281 281 280 280 280 281 280 280 280 280 279 278 278 278
301 299 297 295 295 295 295 295 295 294 294 293 292 291 288 287 286 285 285 285 285 285 285 285 283 283 283 282 281 281 280 280 280 280 280 280 279 278 278 278 277 277 276 276
299 296 295 295 295 295 294 294 293 292 292 292 292 289 288 286 286 285 285 285 285 285 285 283 283 282 282 281 281 281 280 279 279 279 278 278 278 277 276 276 276 275 275 275
304 298 298 296 294 293 292 292 291 292 290 290 290 288 287 286 286 286 285 284 284 284 283 282 282 281 281 281 280 280 280 279 279 278 278 278 277 277 276 275 275 274 274 274
297 296 296 293 293 291 289 290 290 290 290 289 288 288 287 286 286 285 284 284 283 283 282 282 282 281 280 280 279 279 279 279 278 278 278 277 277 277 276 275 274 274 273 273
295 295 291 291 290 289 289 290 289 289 289 288 288 287 287 286 284 284 284 282 281 281 281 281 281 280 280 279 279 279 278 278 278 277 277 277 276 276 275 274 274 274 273 272
294 295 294 292 290 288 288 288 288 288 287 287 287 286 286 285 284 284 282 281 281 281 281 281 280 280 279 278 278 278 278 277 277 277 276 276 275 275 274 274 273 273 273 273
293 293 291 290 288 287 287 286 286 286 286 286 286 286 285 285 283 282 281 280 281 282 282 281 280 279 278 278 278 277 277 277 276 276 275 275 275 274 273 273 273 272 272 272
291 290 289 288 288 287 287 286 286 286 286 286 286 285 284 284 283 282 280 280 281 281 281 279 278 278 277 277 277 277 276 276 275 275 275 274 273 273 272 272 271 271 270 270
293 292 290 289 288 287 287 287 287 287 287 286 285 285 285 284 284 281 279 279 280 280 279 278 278 277 277 276 276 276 275 275 275 274 274 273 273 272 272 271 271 270 270 269
292 291 289 289 288 288 288 288 287 287 287 286 285 285 284 284 282 279 278 278 279 278 278 277 277 276 276 276 276 275 275 274 274 273 273 272 272 272 271 271 270 270 269 269
291 290 290 289 288 289 288 288 288 287 286 286 285 284 283 283 281 279 277 277 277 277 277 276 276 276 275 275 275 274 274 274 273 273 272 272 271 271 270 270 269 269 269 269
291 290 290 289 289 289 289 288 288 287 286 286 285 285 284 283 280 278 277 277 276 276 276 276 276 275 275 275 274 274 273 273 273 272 272 271 271 270 270 269 269 269 268 268
290 290 289 289 289 289 288 288 288 287 286 285 285 284 283 281 278 277 277 277 277 276 276 277 276 275 275 274 273 273 273 272 272 272 271 271 270 270 269 269 269 269 268 268
291 290 290 290 289 289 289 288 287 287 286 285 284 284 282 279 278 279 278 277 276 276 277 276 276 275 274 273 273 272 272 272 272 271 270 270 270 269 269 269 268 268 268 268
292 291 291 290 290 289 289 288 287 286 285 284 284 283 282 280 279 278 277 277 277 277 276 276 275 274 273 273 272 272 272 271 271 270 270 270 269 269 269 269 268 268 268 268
292 291 290 290 289 289 288 287 286 285 284 283 282 282 281 280 280 278 278 277 277 277 276 276 275 273 273 272 272 272 271 271 270 270 270 269 269 269 269 268 268 268 268 268
291 290 290 289 289 288 287 287 286 285 284 282 282 281 280 278 278 279 279 278 277 277 276 275 274 272 272 272 271 271 270 270 270 270 269 269 269 269 268 268 268 268 268 268
289 288 288 288 287 287 286 286 285 284 283 283 282 280 279 278 279 279 279 278 277 277 275 274 273 272 271 271 271 270 270 270 270 269 269 269 269 268 268 268 268 268 268 268

GFSNGP_850_thetae_132.txt.gz
Theta_e
309 309 309 310 310 310 311 312 314 313 312 312 312 312 312 311 308 304 300 298 296 294 293 292 291 289 288 286 286 286 286 286 285 285 284 284 285 288 289 288 288 289 289 287
309 308 309 309 309 309 309 311 312 312 312 312 310 309 310 309 305 302 299 296 293 292 292 290 288 287 285 285 285 285 285 285 285 284 284 284 284 284 283 282 282 284 287 288
309 308 309 309 309 309 310 310 311 314 313 312 311 308 307 305 302 300 296 293 292 291 290 289 286 285 284 284 284 284 284 284 284 284 284 283 283 283 283 282 282 282 283 283
309 308 311 308 307 307 309 310 311 311 311 309 307 304 302 302 301 297 294 293 290 289 288 287 285 284 284 283 283 283 283 284 284 283 283 283 283 283 282 282 281 281 282 282
308 307 307 307 310 309 308 309 308 308 309 304 301 299 296 297 297 294 291 290 290 289 287 285 286 286 284 283 283 283 283 283 283 283 283 282 282 282 281 280 280 280 280 280
306 306 307 310 306 304 305 308 307 305 307 301 300 306 305 295 292 291 291 290 289 287 286 286 286 288 285 283 283 283 282 282 282 282 282 282 281 281 280 280 279 279 279 279
309 308 307 307 304 303 308 309 304 304 303 300 302 300 295 291 290 291 289 288 287 286 287 286 287 287 284 283 283 282 282 282 282 282 282 281 281 280 280 279 279 279 279 279
309 310 311 304 302 304 304 301 302 302 301 300 295 293 290 290 289 288 287 286 286 286 287 287 287 284 283 283 282 282 281 281 281 281 281 280 280 280 280 279 279 279 279 278
308 309 304 302 302 301 300 301 301 301 299 298 293 290 288 287 286 286 286 286 286 286 286 285 284 283 283 282 282 281 281 281 280 280 280 279 279 280 280 279 279 279 279 278
307 307 302 302 299 298 298 299 297 298 297 295 292 289 288 287 287 286 286 286 285 285 284 284 284 283 283 282 281 281 281 280 279 279 279 279 280 279 278 278 279 278 277 277
306 302 298 298 299 298 296 296 295 295 294 293 292 289 288 287 287 286 286 285 285 286 285 284 283 283 282 281 281 280 280 280 279 278 278 278 277 277 277 276 276 276 276 275
307 304 303 303 299 296 295 295 294 293 292 291 290 288 288 287 287 286 285 285 285 285 284 283 282 282 281 281 281 280 280 279 279 278 278 278 278 276 275 275 274 274 274 274
303 299 298 297 296 295 293 292 292 291 290 289 289 288 287 286 286 285 285 285 284 284 283 282 282 281 281 280 280 280 279 279 278 277 277 277 277 277 277 276 274 274 273 272
296 295 294 294 293 293 292 291 290 290 289 288 288 288 287 286 285 285 285 285 283 282 282 281 281 280 280 279 279 279 278 278 277 277 277 277 276 276 276 275 275 273 272 272
295 294 296 293 291 291 290 290 290 289 289 288 288 288 287 286 285 285 284 282 282 282 281 281 280 280 279 279 278 278 278 277 277 276 276 275 275 275 275 274 274 272 271 271
293 293 292 291 290 289 289 290 289 288 288 287 287 287 286 285 284 283 282 282 281 281 281 281 280 279 279 278 278 277 277 276 276 276 275 275 274 274 273 273 273 272 271 271
293 292 291 290 290 289 290 290 289 288 287 287 286 285 284 283 282 282 281 281 281 282 281 280 279 278 278 278 277 277 276 276 275 274 274 274 273 273 272 272 271 271 270 271
294 294 293 291 290 289 289 289 288 288 287 286 284 284 284 283 282 282 281 280 281 281 280 279 278 278 277 277 276 276 275 275 274 274 274 273 272 272 271 271 270 270 269 269
293 292 292 290 290 289 288 288 287 287 286 286 286 285 285 284 284 282 280 280 280 280 279 278 277 277 277 276 276 275 275 274 274 273 273 272 272 271 271 271 270 269 268 268
292 291 290 289 288 288 288 287 287 287 287 286 286 285 284 284 283 280 279 279 279 279 278 277 277 277 276 276 275 275 274 274 273 273 272 272 271 271 271 270 270 269 269 269
291 290 289 288 288 288 288 288 288 287 286 286 286 285 284 283 282 279 278 278 278 278 277 277 276 276 276 275 275 274 273 273 272 272 272 271 271 271 270 270 269 269 269 269
290 290 290 289 289 288 288 288 287 287 286 286 285 285 284 283 281 278 278 278 278 277 276 277 277 276 275 275 274 273 273 272 272 272 271 271 270 270 270 270 269 269 269 269
290 290 289 289 289 289 288 288 287 287 286 286 285 284 283 283 281 278 277 277 277 277 277 277 276 276 275 274 273 273 272 272 272 271 271 270 270 270 270 269 269 269 269 269
290 290 289 289 289 289 288 288 287 287 286 285 285 284 283 281 278 277 278 279 277 276 277 276 276 275 274 273 273 272 272 272 271 271 270 270 270 269 269 269 269 269 269 269
291 291 290 290 289 289 288 288 287 286 285 284 283 283 282 280 280 279 279 277 277 277 277 276 275 274 273 272 272 272 272 271 271 270 270 269 269 269 269 269 269 269 268 268
291 291 290 290 288 288 288 288 286 285 284 283 283 282 280 280 280 279 277 277 277 277 276 276 275 273 272 272 272 271 271 271 270 270 270 269 269 269 269 269 269 268 268 268
290 290 289 288 288 288 288 287 285 285 284 283 282 281 281 280 279 278 278 278 277 277 277 275 274 273 272 272 271 271 271 270 270 269 269 269 269 269 269 268 268 268 268 268

GFSNGP_850_thetae_135.txt.gz
Theta_e
309 309 309 309 309 309 310 311 312 313 313 313 313 313 312 314 313 312 308 305 303 301 299 296 294 292 290 289 288 287 286 286 286 285 285 285 285 285 285 285 284 283 283 283
307 306 307 307 308 308 309 309 309 310 311 311 310 312 312 312 313 311 307 304 301 298 297 294 291 290 288 286 286 285 285 285 285 285 284 284 284 284 283 283 283 282 282 281
309 308 308 308 309 309 309 309 309 312 311 311 311 312 311 311 312 310 306 302 297 295 293 291 290 288 287 285 285 285 284 284 284 284 284 283 284 283 283 282 282 281 281 281
310 307 309 307 308 309 309 309 309 309 310 311 312 310 309 308 308 306 302 297 294 293 291 290 288 286 284 284 284 284 284 284 283 283 283 283 283 283 282 282 281 281 280 280
309 308 307 307 308 312 310 309 309 309 310 310 308 305 303 303 304 301 297 294 293 291 290 288 286 285 284 284 283 283 283 283 283 282 282 282 282 282 282 282 281 281 279 279
308 307 308 310 307 306 309 312 309 309 310 310 306 309 308 299 297 295 295 293 291 290 288 286 286 286 285 283 283 283 283 283 283 282 282 282 282 282 281 281 281 281 280 279
310 309 308 307 306 306 308 309 307 306 307 308 307 302 298 296 294 293 292 290 289 287 287 287 287 286 284 283 283 283 282 282 282 282 282 282 281 281 281 281 281 281 280 279
309 309 309 307 307 308 308 305 305 305 305 304 297 295 295 293 291 289 289 288 287 286 286 286 287 285 283 283 282 282 281 282 282 282 281 281 282 282 281 281 281 281 281 280
307 308 309 307 307 307 304 305 305 305 304 300 295 292 291 290 289 288 288 288 288 287 286 286 285 284 283 283 282 281 281 281 281 281 281 281 281 281 282 281 281 281 280 279
307 308 308 308 305 302 302 303 303 303 302 298 294 291 290 289 288 288 288 288 288 287 286 287 286 285 283 282 282 281 281 281 280 280 280 281 281 279 279 279 279 279 279 277
308 307 306 305 304 303 301 301 300 299 299 295 293 291 290 289 289 289 288 287 287 287 287 287 286 285 284 284 283 282 281 281 280 280 280 279 278 278 277 275 275 276 276 276
309 306 307 306 305 303 302 299 297 296 295 294 292 291 290 289 289 288 287 287 287 287 287 285 285 284 284 283 282 281 281 281 281 281 280 280 280 279 278 277 275 274 274 273
305 303 303 302 302 302 299 297 296 295 293 292 292 290 290 289 288 287 287 287 287 286 286 285 284 283 282 282 281 281 281 280 279 280 280 280 279 280 279 278 277 275 273 272
303 300 299 299 298 297 296 295 294 294 292 291 290 290 289 288 287 287 287 287 286 286 284 283 282 281 280 280 280 279 279 279 280 279 279 279 278 278 278 278 277 275 273 272
300 299 299 298 296 295 294 294 293 292 291 290 290 289 288 288 287 287 287 286 285 285 284 283 281 280 280 279 279 279 279 279 279 278 277 277 278 277 277 277 276 275 272 272
298 297 297 296 294 294 294 293 292 291 290 290 289 289 288 288 287 286 285 285 284 284 283 282 281 280 279 279 279 278 278 278 278 278 277 277 276 276 276 275 275 274 271 271
297 296 295 294 293 293 293 292 291 290 289 289 289 288 288 287 286 285 284 283 282 282 281 281 280 279 279 278 279 279 278 276 276 276 276 275 275 275 274 274 273 273 271 271
297 296 295 294 293 292 292 291 290 289 289 288 287 287 286 285 285 283 282 282 282 281 281 281 279 279 278 278 279 278 278 277 276 276 275 275 274 273 273 272 272 271 271 270
295 295 295 293 292 291 291 290 289 288 288 287 286 285 284 283 283 282 282 281 281 281 281 279 278 278 277 277 277 276 276 276 275 274 274 273 273 272 272 271 271 270 270 269
294 293 292 291 291 290 289 289 288 288 287 287 286 284 283 283 283 283 280 280 280 280 280 279 278 277 277 276 276 276 275 275 274 274 273 273 272 271 271 271 270 269 269 268
292 291 290 290 289 289 289 288 288 287 287 286 285 284 284 284 283 282 281 280 280 280 279 278 277 277 276 276 275 275 275 274 273 273 273 272 271 270 270 270 269 269 268 268
291 290 289 289 289 288 288 288 287 287 286 286 284 284 284 283 282 281 280 280 280 278 278 277 276 277 276 275 275 275 274 274 273 273 272 271 270 270 270 270 269 269 269 269
290 290 289 289 288 288 288 288 287 287 287 286 285 285 284 283 281 280 279 278 279 279 277 277 279 277 276 275 275 274 273 273 273 272 271 271 271 270 270 270 270 270 270 269
290 290 289 289 288 288 288 287 287 287 286 286 285 285 284 282 280 280 279 279 279 279 277 278 277 276 275 275 274 274 273 273 272 272 272 271 271 270 270 270 270 270 270 269
290 290 289 289 288 287 286 287 286 286 286 285 285 284 283 281 281 279 279 279 279 278 277 277 276 276 275 274 273 273 273 272 272 272 271 271 270 270 270 270 269 269 269 269
290 289 289 289 289 288 286 285 285 283 283 283 283 283 282 281 280 279 279 280 279 277 277 277 276 275 274 273 273 272 272 272 271 271 271 270 270 270 270 270 269 269 269 269
290 289 289 288 288 287 286 285 285 284 284 283 282 282 281 280 280 280 280 278 277 277 277 277 276 275 274 273 272 272 272 271 271 271 270 270 270 270 270 269 269 269 269 269